RH
85 86 82 76 78 81 77 79 81 79 77 77 77 75 75 71 66 63 62 69 79 80 73 69 68 65 67 65 65 72 63 52 50 51 51 52 54 54 55 54 54 55 56 56 54 52 54 54 53 53 53 53 54 53 53 52 52 49 47 49 51 52 54 53 49 54 55 54 55 53 53 54 55 54 53 52 48 43 39 36 33 38 45 47 47 46 48 48 45 46 48 50 51 52 55 56 57
87 86 77 68 71 76 78 81 79 78 77 81 81 76 77 72 64 60 58 70 77 74 72 73 78 80 78 72 71 73 63 55 52 48 48 49 51 51 52 52 52 52 53 53 52 53 53 52 51 52 53 53 54 53 53 51 50 47 45 45 49 58 58 50 52 58 55 57 58 50 50 55 55 53 56 57 51 46 52 52 41 38 41 43 44 44 46 46 47 48 49 50 53 56 56 56 57
79 86 80 71 70 72 80 85 78 74 76 84 86 81 79 75 72 69 65 73 78 74 75 78 83 84 79 76 74 69 60 57 52 46 47 49 48 47 49 50 50 50 51 51 50 51 51 51 51 52 51 52 53 52 52 50 49 47 46 46 51 59 55 49 54 56 53 56 57 52 52 56 55 54 58 61 58 51 52 52 47 47 46 43 40 44 50 46 46 48 47 49 52 54 54 54 53
69 79 82 79 77 73 78 85 78 71 74 84 87 85 82 79 80 80 77 77 80 77 74 77 80 79 79 76 67 60 56 54 50 46 46 48 49 48 48 49 49 49 49 49 48 48 49 49 49 49 49 50 50 49 49 47 46 46 46 51 57 55 52 55 56 52 51 53 57 59 58 57 56 54 57 63 63 55 48 47 48 52 50 46 41 43 50 48 46 46 44 49 52 51 51 50 49
72 77 82 83 79 73 78 85 80 72 75 83 85 85 82 79 80 80 80 79 82 80 76 76 75 78 80 72 59 58 57 53 50 48 46 46 50 50 49 48 47 48 48 48 48 49 49 49 50 50 50 49 49 49 47 45 45 48 49 54 64 60 57 58 54 54 52 51 56 61 60 57 57 55 57 63 64 56 47 45 47 52 51 49 49 49 51 48 46 46 44 50 53 51 50 49 49
84 85 86 85 78 76 84 86 81 78 80 84 82 83 81 79 80 78 76 78 82 81 79 78 76 79 80 72 64 66 60 54 52 48 47 45 48 50 48 48 48 49 48 48 48 49 50 49 49 47 46 47 46 47 46 46 48 52 54 59 68 65 62 61 57 59 53 51 57 59 59 59 57 55 60 66 64 57 48 40 43 52 51 51 54 53 53 50 47 47 46 51 55 53 51 51 51
90 89 90 86 77 81 89 85 83 83 84 86 82 82 81 79 80 77 74 75 80 83 83 82 80 80 80 75 71 71 58 52 53 48 48 46 46 48 47 48 48 49 48 48 49 48 47 44 42 41 43 45 44 47 48 54 58 58 61 64 68 63 61 65 62 61 56 56 60 60 61 61 56 53 60 66 65 60 47 33 38 50 49 50 54 54 52 51 49 47 50 53 54 51 49 53 57
89 89 89 85 79 82 87 84 84 86 86 85 82 82 82 81 79 76 74 74 77 83 87 85 84 81 76 70 68 67 53 51 55 48 48 47 46 47 46 48 47 48 48 47 46 42 40 40 42 43 45 46 46 51 53 60 66 64 65 65 65 61 60 64 61 58 60 64 64 62 62 59 55 55 60 64 66 61 44 26 29 44 48 48 51 54 52 52 52 47 51 55 52 49 46 56 66
87 88 88 84 79 83 86 84 85 86 85 82 81 82 81 80 78 75 73 75 76 79 86 83 83 83 71 62 62 58 50 52 54 48 48 48 47 47 46 47 46 47 47 43 38 36 38 44 48 46 46 50 52 55 57 61 68 67 63 66 67 62 63 65 64 62 64 69 67 64 62 58 57 60 63 67 65 57 43 28 24 32 41 46 45 45 46 47 49 48 51 51 50 48 47 56 65
88 87 89 84 78 84 87 84 85 84 82 80 80 81 80 77 76 75 72 74 72 72 79 77 81 82 64 54 55 51 51 53 51 47 47 48 47 47 47 45 43 43 40 35 33 36 42 49 52 48 49 55 56 58 59 60 69 69 59 64 69 67 70 68 67 68 66 68 66 65 66 63 63 63 63 64 58 48 40 31 25 23 27 37 43 41 43 50 56 56 49 40 42 48 51 56 60
92 88 87 83 80 86 87 83 84 85 83 82 82 81 79 75 76 77 76 73 64 63 69 71 78 74 56 48 50 52 57 57 53 49 46 47 47 47 48 44 39 35 32 33 36 42 44 49 52 51 51 55 56 58 60 60 67 66 56 62 70 71 71 67 68 70 68 69 67 66 69 69 68 63 60 55 45 37 31 25 24 22 20 27 40 44 47 55 54 44 35 31 39 47 53 57 54
92 88 85 80 83 88 85 82 82 86 85 83 83 82 80 77 76 75 77 71 54 56 62 65 68 60 49 45 48 55 61 60 56 51 46 46 47 47 45 38 33 30 31 36 43 48 47 49 53 53 52 54 58 61 62 62 66 66 59 64 71 70 67 66 71 74 72 71 69 69 72 72 66 58 53 46 37 30 25 22 21 21 20 21 30 35 36 39 32 26 30 33 39 46 51 53 43
87 89 88 79 83 89 85 82 83 85 85 83 81 82 81 79 80 76 78 69 50 53 57 58 59 50 46 43 47 53 57 58 55 52 48 47 47 44 37 30 30 32 35 41 48 50 50 54 58 60 59 59 63 67 66 64 68 68 64 68 73 70 66 68 69 70 71 69 68 71 71 67 59 52 48 42 34 29 25 24 23 22 22 21 23 24 24 25 24 27 31 32 37 43 47 44 28
83 88 89 81 84 90 85 82 82 84 85 84 81 82 81 79 82 79 77 67 53 56 55 54 55 48 43 39 43 49 52 53 53 53 50 47 44 36 30 29 33 36 39 45 51 50 52 58 58 59 60 58 62 67 68 69 73 71 67 70 71 67 65 67 65 62 63 64 67 68 63 59 54 50 46 40 33 28 26 24 24 22 22 22 22 23 24 26 27 28 27 30 37 41 42 33 18
80 86 87 84 86 89 86 81 81 82 83 85 83 82 80 80 82 80 80 71 60 61 59 55 54 50 42 34 37 45 48 49 51 52 49 44 37 34 35 36 39 41 43 46 51 54 56 56 52 54 54 54 62 65 67 71 75 75 70 67 68 69 68 70 69 63 63 65 65 63 57 54 53 49 44 37 31 26 24 23 23 23 23 24 25 26 26 26 25 26 28 32 36 38 35 22 16
76 83 85 88 87 87 85 81 80 79 79 83 85 83 80 80 81 81 83 79 67 58 56 53 50 49 43 38 40 44 46 46 48 48 46 42 38 41 43 44 46 46 48 48 53 56 56 53 52 56 54 57 64 62 63 69 71 75 73 67 68 72 70 69 66 62 65 66 63 59 55 53 52 47 40 33 28 25 23 24 24 24 26 28 28 27 25 25 27 31 33 33 32 32 26 19 21
72 78 85 89 88 87 86 82 79 77 76 78 81 82 79 77 79 83 83 82 73 57 50 48 48 49 45 45 45 43 45 45 47 47 46 46 46 48 49 51 52 51 50 51 55 55 54 54 56 59 56 60 65 60 62 69 69 73 75 67 66 67 64 66 63 58 63 65 61 58 55 53 49 43 36 30 25 23 24 25 26 29 30 30 27 25 25 29 35 39 37 30 26 26 24 24 27
68 72 82 87 85 88 87 83 79 77 75 72 75 79 77 72 71 82 84 75 68 57 49 47 50 50 47 48 46 42 45 47 49 51 52 53 53 53 54 56 56 54 53 53 55 54 54 57 59 59 58 61 63 60 60 66 65 66 70 68 66 64 60 65 64 57 60 63 62 59 57 53 45 38 32 27 25 25 28 30 32 31 29 26 25 26 31 38 45 44 36 26 22 26 28 28 29
62 66 77 85 87 89 88 85 80 78 76 69 69 73 76 75 69 77 80 64 55 52 47 50 53 48 46 47 45 44 48 50 53 56 56 57 56 55 57 58 58 56 54 53 54 53 54 58 59 57 59 62 62 61 61 64 64 61 64 66 67 66 59 60 61 56 57 59 61 60 56 49 41 35 30 28 29 32 34 35 32 26 24 26 29 34 42 49 50 42 30 22 24 30 32 31 31
57 62 73 83 90 93 92 89 83 79 77 69 65 69 76 81 75 74 77 60 49 48 45 48 51 46 44 44 43 47 50 54 56 56 56 58 57 56 57 59 60 57 53 52 53 52 53 58 59 55 58 62 63 65 63 62 63 61 61 63 64 65 60 58 58 56 56 57 57 55 50 45 39 35 34 35 37 39 41 39 31 27 31 35 38 44 51 53 46 34 25 23 28 34 34 32 29
60 66 74 83 89 94 94 90 85 82 79 73 65 66 73 80 80 76 76 61 44 45 45 45 48 47 43 42 44 47 51 54 56 56 58 60 59 57 56 59 60 55 52 52 52 51 53 58 56 52 55 60 63 64 60 58 59 57 60 62 61 62 60 59 57 56 57 55 53 50 47 42 39 37 38 40 41 44 48 42 34 37 44 45 46 51 54 49 39 30 27 29 33 35 33 30 27
64 70 78 85 90 93 93 89 86 83 81 80 71 67 71 76 80 79 77 66 49 44 46 47 49 50 45 43 43 44 51 55 57 59 60 63 61 59 58 58 58 55 52 52 52 52 54 56 52 51 55 59 59 58 57 57 55 53 55 57 58 58 58 57 55 55 55 54 53 50 46 41 39 40 40 42 44 49 54 48 41 47 52 51 51 53 51 43 34 31 31 34 35 33 31 29 29
65 70 79 83 88 90 91 90 86 83 80 81 79 74 74 75 79 82 80 76 65 52 50 53 53 54 50 43 40 44 53 58 61 62 63 66 64 61 58 56 56 54 51 52 53 53 53 53 50 52 58 59 55 53 54 54 53 52 50 51 53 55 55 54 52 50 49 50 51 49 45 41 42 43 43 45 46 52 58 54 50 55 56 54 53 52 48 40 34 34 35 35 33 31 31 31 34
65 69 78 81 84 84 87 91 86 82 79 78 81 78 76 77 77 81 82 80 74 60 55 58 55 55 52 42 38 46 58 62 63 63 63 66 64 61 56 52 53 50 50 53 54 52 51 50 51 55 58 58 56 52 51 51 52 50 47 47 49 50 48 48 47 44 43 44 46 45 44 44 46 46 46 47 49 53 58 57 55 58 59 56 53 50 46 40 36 36 35 34 32 31 32 34 37
66 72 75 76 82 81 83 91 87 82 80 77 79 79 77 78 76 77 80 79 77 69 64 59 53 54 52 42 37 47 60 61 61 61 60 62 61 59 53 51 51 48 49 53 55 53 49 48 51 55 55 54 54 52 51 51 50 45 43 43 43 43 42 41 42 41 41 42 43 44 45 46 46 46 47 49 52 55 58 56 56 58 59 57 53 50 46 40 38 37 35 34 32 31 33 35 38
67 74 74 71 79 81 78 87 89 83 81 77 76 79 78 77 79 80 80 78 78 79 75 61 50 52 51 42 37 47 58 58 60 62 60 60 60 57 52 51 50 48 50 51 55 56 50 48 50 52 51 50 49 49 51 51 47 42 40 39 39 38 37 37 38 38 40 40 41 42 42 43 44 47 51 54 57 58 57 52 53 57 59 56 52 50 46 41 39 37 36 34 33 33 35 37 39
67 75 75 71 77 80 77 83 90 86 82 78 75 75 74 74 79 81 81 79 78 81 79 62 47 49 50 41 36 46 56 60 64 64 61 61 58 55 51 50 50 50 51 50 53 56 54 50 48 49 48 47 47 47 49 49 44 39 37 36 34 33 32 33 35 38 40 41 43 45 46 48 49 52 56 59 62 61 56 49 49 55 56 52 50 49 46 41 39 39 37 35 35 36 37 39 40
71 76 73 72 75 77 77 80 88 88 84 81 77 74 72 73 77 79 80 79 76 77 75 61 46 47 50 41 36 45 54 62 69 68 66 65 61 58 53 50 50 52 52 50 51 53 53 50 45 46 47 46 45 45 46 45 42 39 37 35 34 34 35 37 40 42 43 44 47 51 54 56 56 56 59 62 64 62 58 52 49 51 52 50 49 49 45 42 40 39 38 37 36 37 39 41 43
76 76 71 73 72 73 75 77 85 87 85 84 81 82 79 76 79 80 80 77 75 76 71 57 45 46 49 40 35 42 52 64 73 74 71 68 65 61 57 52 50 52 52 49 49 49 49 48 44 44 44 44 43 43 44 44 43 42 41 41 42 42 42 43 43 44 46 49 52 55 55 56 57 58 59 62 65 64 62 56 50 49 50 49 48 47 45 42 41 40 39 38 37 38 40 43 46
73 72 69 68 68 73 74 78 86 84 82 84 86 92 84 76 81 83 81 77 73 75 72 56 44 46 48 40 36 40 51 67 76 75 72 69 65 62 58 52 50 52 51 49 48 47 45 45 44 43 42 42 42 42 43 44 45 47 47 48 49 48 47 46 46 47 51 56 59 59 58 58 58 57 58 61 64 65 62 55 50 50 50 47 47 46 44 42 41 40 40 39 38 40 41 44 48
63 66 65 64 69 73 73 80 88 82 78 82 86 91 81 74 84 85 82 79 71 72 73 63 48 44 46 39 36 39 50 67 74 73 73 69 65 62 56 52 52 53 50 50 50 48 46 45 44 44 43 43 43 42 42 45 49 50 51 52 53 53 51 49 49 52 55 60 62 63 63 62 60 59 58 59 63 65 61 54 51 52 49 46 45 44 43 41 40 39 38 39 40 42 44 46 48
55 59 61 66 70 70 71 78 88 89 84 83 89 91 80 76 84 86 85 80 73 72 74 74 60 45 43 40 36 39 48 61 68 71 72 68 67 64 57 55 57 53 50 51 52 51 49 48 46 46 47 45 45 44 42 44 48 50 51 52 54 53 49 48 50 53 57 59 60 61 63 62 61 59 59 59 61 64 62 56 54 53 47 43 44 43 42 40 39 38 38 39 40 44 48 49 49
46 50 58 62 64 68 73 77 87 96 92 88 90 89 82 79 83 87 89 82 75 76 76 81 75 52 41 40 38 40 46 55 62 68 69 66 68 67 60 60 60 53 51 53 53 53 53 53 52 52 52 48 45 45 44 43 45 47 50 52 52 50 44 43 50 55 58 59 57 57 57 57 56 56 58 58 58 60 61 58 55 54 47 42 44 43 42 40 39 39 39 40 42 47 51 51 50
40 45 52 55 60 68 74 76 87 96 95 92 90 89 83 78 80 85 89 84 78 77 76 84 84 59 42 40 40 41 45 52 59 65 67 65 68 69 63 62 61 53 51 54 55 54 55 57 57 56 57 53 46 46 46 46 45 46 49 49 49 47 41 41 50 56 57 57 56 56 52 49 49 52 56 58 58 58 59 58 56 55 50 45 45 44 43 42 40 41 43 43 44 48 50 50 49
39 46 50 55 63 70 73 75 84 95 98 95 90 88 83 80 82 82 86 87 80 76 77 88 86 61 43 41 40 42 47 52 58 65 68 67 68 70 66 63 62 54 50 53 55 54 54 57 58 56 58 57 49 45 46 45 42 42 42 41 41 41 37 39 48 53 54 57 58 57 51 48 49 52 56 58 61 60 59 58 57 56 52 48 47 46 45 44 42 44 46 47 47 49 50 49 48
38 41 43 45 50 61 72 74 82 96 100 97 89 82 80 83 85 80 82 84 80 79 86 93 85 60 43 40 40 43 49 53 58 65 70 69 68 71 68 64 64 60 52 49 52 53 52 53 53 52 54 54 48 45 44 39 34 34 33 31 31 32 32 35 44 50 53 57 59 56 51 49 51 53 55 58 61 61 59 58 58 56 53 51 51 50 48 47 46 47 48 49 50 50 49 46 46
33 33 32 30 31 47 67 74 82 94 98 97 93 85 82 84 86 82 81 82 77 82 93 95 81 57 43 39 38 40 47 54 59 65 71 71 68 71 71 66 65 63 54 47 49 52 52 50 49 49 48 47 45 46 45 37 32 32 30 28 26 26 28 32 40 48 52 55 57 55 50 49 50 51 53 56 58 60 59 57 58 56 54 53 54 53 51 49 50 50 49 48 49 50 48 43 44
30 30 30 27 28 42 63 72 82 91 95 97 95 93 90 88 89 85 81 82 76 76 88 92 76 53 43 38 34 37 46 56 62 64 69 72 69 69 70 66 64 63 54 48 47 50 52 50 49 49 46 44 45 49 49 40 33 34 34 31 27 25 28 32 38 44 47 50 53 53 51 49 49 50 52 55 58 59 58 57 57 56 55 55 54 54 53 52 51 49 47 46 49 53 50 42 42
30 29 28 28 34 51 64 69 79 89 94 99 95 92 94 91 90 88 82 80 78 77 83 86 73 54 43 37 34 38 45 54 63 64 65 73 73 68 67 63 64 64 56 51 49 48 50 49 48 50 49 46 45 49 50 42 35 36 38 37 33 29 29 32 36 39 41 44 47 51 51 49 48 49 51 55 58 58 57 57 57 57 57 57 56 53 52 52 51 47 45 45 49 57 53 42 40
29 29 26 28 40 58 65 64 74 86 92 99 98 94 95 93 91 92 86 81 83 84 82 81 73 57 43 37 38 40 42 49 61 65 63 71 74 67 63 60 62 63 56 52 50 48 50 49 47 50 51 49 46 49 49 43 39 40 43 44 40 34 30 31 34 37 39 41 44 48 50 50 48 48 48 51 54 56 56 56 57 57 58 60 59 54 51 51 49 47 47 49 51 58 55 43 39
28 29 26 26 41 59 67 64 70 87 95 97 100 99 97 96 95 94 87 85 89 86 80 78 72 63 52 47 46 44 42 44 56 63 61 64 67 63 61 58 60 61 55 52 52 51 51 51 50 50 53 53 51 51 50 45 45 46 47 47 44 37 31 30 33 36 38 40 41 44 48 50 49 48 48 48 50 52 54 56 57 57 58 60 60 58 55 53 51 51 53 55 55 57 57 47 40
26 28 25 24 40 60 69 66 70 92 102 98 100 100 96 93 94 95 90 87 91 88 79 73 70 67 59 52 51 49 46 45 51 59 59 58 60 59 60 61 61 59 55 53 55 55 54 54 54 53 53 56 55 55 53 51 52 52 52 54 52 46 40 37 35 35 37 39 39 41 45 49 49 48 48 48 48 48 50 53 56 56 56 58 59 60 59 58 57 56 56 57 56 55 55 50 44
24 26 24 27 42 60 69 69 74 91 99 99 100 97 95 92 85 88 95 92 91 89 78 68 68 66 53 45 49 49 46 44 48 54 57 57 56 54 57 60 58 56 54 54 55 55 55 55 56 55 55 57 57 57 56 55 57 58 58 59 59 55 50 47 41 37 37 37 38 40 42 45 47 48 49 50 49 47 45 47 49 51 52 53 55 57 59 59 59 59 57 56 54 53 52 50 49
23 23 26 37 51 62 70 74 79 85 89 96 100 96 97 97 87 86 95 96 93 90 78 65 64 62 49 45 52 54 48 43 43 47 51 53 53 51 52 55 56 54 52 53 53 53 54 54 54 55 56 57 57 57 58 59 59 61 61 59 59 58 56 51 44 38 37 37 38 38 40 43 44 46 48 50 50 47 44 44 45 45 46 49 50 53 56 57 57 57 57 55 53 53 51 48 49
23 20 24 44 61 67 71 78 85 88 91 96 97 97 98 95 89 89 96 98 93 87 79 67 60 58 55 55 62 67 62 52 44 43 46 48 49 51 51 52 54 54 52 51 53 53 51 50 51 51 52 54 55 56 59 61 60 60 60 58 58 61 60 55 47 41 38 40 41 38 39 41 42 44 45 45 48 48 45 44 44 45 46 46 48 50 52 53 55 56 57 56 54 53 52 50 48
20 18 29 55 69 70 75 84 89 94 99 96 90 97 101 94 86 85 91 96 91 84 78 67 58 57 62 65 66 71 74 66 52 45 47 48 47 51 54 53 52 52 53 52 53 54 50 48 48 47 49 51 53 55 56 58 58 56 55 56 58 60 62 58 51 45 41 41 43 40 40 43 44 46 47 44 44 47 46 44 45 46 47 47 48 50 52 53 54 55 56 56 54 53 53 52 50
16 19 42 68 77 80 87 90 89 95 100 90 83 90 97 97 88 80 80 78 76 80 80 70 61 62 67 69 68 70 75 73 59 47 47 50 50 53 57 57 55 52 52 50 49 51 51 49 49 47 47 50 52 53 53 54 56 55 55 58 60 60 60 60 55 51 47 45 46 43 41 45 46 46 48 47 44 44 45 45 46 47 47 47 48 50 54 56 57 57 56 54 53 53 52 52 52
12 26 54 71 81 91 96 94 93 99 95 78 71 79 92 99 89 77 74 70 67 74 78 71 62 60 63 67 68 70 74 74 63 48 45 50 53 55 56 56 57 55 51 49 47 47 48 49 50 48 45 48 51 52 53 54 57 58 59 61 61 60 59 58 58 56 53 53 53 49 43 44 48 48 47 48 47 46 46 46 47 48 48 48 48 49 53 57 57 57 56 54 51 50 51 51 52
27 40 60 70 86 97 94 95 96 94 89 76 69 76 89 91 81 75 75 74 71 69 71 70 62 54 57 65 70 72 74 75 66 50 43 49 53 54 54 54 56 56 53 51 48 46 47 47 49 49 46 46 49 51 52 53 55 58 61 61 60 60 58 57 56 56 56 59 59 57 52 48 50 52 51 49 47 46 48 48 47 47 47 48 49 49 52 56 57 56 56 52 46 44 46 47 48
48 50 54 62 86 100 99 102 98 89 88 86 81 84 86 78 68 68 68 69 72 70 67 69 66 58 57 63 68 72 75 75 68 54 47 52 57 56 55 53 53 54 54 54 52 49 48 48 48 48 49 48 48 50 51 50 52 54 55 57 58 58 58 57 56 57 59 61 63 63 60 56 54 53 52 50 47 49 52 51 50 49 48 48 49 49 51 55 57 55 54 49 43 42 42 42 45
42 46 47 49 61 73 84 93 90 90 96 96 96 93 83 70 64 63 62 63 71 74 70 67 69 67 63 65 70 72 75 75 70 60 54 57 62 61 59 55 52 52 53 55 55 53 50 49 49 48 48 48 48 49 49 48 49 49 51 55 56 57 58 57 57 59 60 62 64 65 63 61 58 55 55 54 54 56 57 55 54 54 53 52 51 51 51 54 56 55 53 49 44 43 44 44 47
52 53 51 49 46 47 61 73 76 84 94 97 95 84 70 63 62 62 64 65 69 76 77 71 71 74 73 73 73 72 73 75 72 64 58 59 64 67 65 61 56 54 52 52 54 56 54 52 52 50 48 47 48 49 49 48 48 47 49 54 56 56 57 57 57 57 58 61 62 62 62 61 58 57 58 58 58 60 60 60 59 59 59 56 54 53 52 54 55 54 53 51 47 48 50 51 51
61 59 56 53 48 46 54 70 77 75 80 85 81 72 64 62 61 62 68 71 71 75 79 76 73 76 78 76 73 72 71 72 70 62 55 56 61 67 68 66 63 60 55 49 50 54 56 56 54 52 51 48 46 47 49 50 49 48 50 53 56 57 56 57 58 58 57 59 59 58 59 59 57 57 58 58 59 60 61 62 63 60 58 56 54 52 51 50 50 50 49 49 49 51 54 55 53
51 55 60 57 53 50 51 67 80 77 77 81 77 72 68 66 65 62 64 70 71 72 76 80 80 80 81 79 75 73 70 69 68 63 58 57 60 65 68 68 67 67 64 55 48 49 52 54 54 53 53 51 49 47 47 49 49 49 51 53 56 57 56 56 59 60 57 57 58 57 57 59 58 57 57 57 58 60 61 63 63 59 56 55 53 51 49 48 48 47 46 46 46 48 51 52 51
48 51 57 57 57 56 53 60 73 78 84 83 75 74 68 58 59 58 57 63 67 69 71 73 76 78 79 80 79 76 72 70 70 69 65 61 60 63 67 68 68 70 72 67 56 50 48 48 50 51 53 55 54 51 48 47 48 49 52 54 56 57 58 57 58 59 58 57 58 56 56 60 60 59 60 60 60 59 61 62 61 59 57 56 54 52 51 49 47 47 46 46 46 46 46 45 43
56 53 52 53 54 54 52 52 54 62 77 80 75 76 63 46 48 53 55 60 62 65 68 67 68 69 69 72 75 75 73 71 71 70 67 62 60 62 65 67 69 69 72 73 66 58 54 52 50 49 51 56 57 54 50 48 46 47 50 54 56 57 58 58 57 58 58 58 58 57 58 59 59 60 61 62 62 60 60 61 60 58 57 56 55 53 52 51 49 47 47 47 47 46 46 46 45
56 47 43 46 47 48 48 49 43 46 65 77 78 74 55 42 49 51 53 61 63 63 65 66 65 63 61 62 66 71 73 71 71 70 68 65 62 63 66 68 71 73 75 76 72 66 64 63 60 54 50 52 56 55 52 50 47 46 48 52 55 57 59 59 57 56 58 58 59 60 60 58 57 60 60 60 62 62 61 62 61 59 56 55 54 53 51 51 50 50 49 50 49 49 49 50 50
44 40 38 39 42 42 44 49 45 42 53 64 66 62 49 42 48 49 51 61 66 67 66 64 64 62 60 59 63 69 72 71 71 70 69 68 65 64 67 69 72 76 77 77 74 72 70 70 72 69 59 52 54 56 54 52 49 45 46 50 53 56 58 59 56 55 57 57 58 61 60 55 56 59 59 59 61 62 61 60 60 60 58 54 52 51 50 51 52 53 53 52 51 49 49 49 51
Wind_Speed
3 4 6 8 8 6 5 5 6 7 11 16 16 15 15 16 17 19 20 17 14 13 12 12 11 9 9 9 6 6 7 14 13 15 16 20 20 18 18 16 15 14 13 12 11 11 12 12 12 11 10 10 9 8 8 7 6 5 5 5 5 6 6 6 6 5 5 6 6 6 6 6 7 7 7 8 9 10 11 12 12 12 11 11 12 11 10 10 10 11 12 12 12 12 12 13 12
4 4 6 8 7 6 4 5 9 12 16 17 15 15 16 17 17 18 18 15 12 12 13 12 10 8 8 7 3 4 11 12 9 12 16 19 19 19 18 16 15 14 13 12 12 12 11 11 10 9 8 8 7 6 6 5 5 5 5 5 6 7 6 6 5 4 5 5 5 5 6 6 6 7 8 8 10 10 11 12 11 11 10 10 10 10 9 9 10 10 11 12 12 12 12 13 12
4 4 5 6 6 6 5 6 11 16 19 18 15 16 17 17 16 15 14 12 10 9 10 10 8 8 9 7 5 9 11 9 10 13 15 17 17 18 18 17 16 15 13 12 11 10 9 8 8 7 6 6 5 4 4 4 4 5 5 6 7 6 5 5 5 5 5 5 4 4 5 6 6 7 7 9 10 11 12 12 11 11 10 10 10 9 9 9 9 9 10 11 12 12 12 12 12
5 4 4 4 5 5 4 8 13 18 20 20 18 17 17 16 15 14 13 11 9 7 7 8 8 9 9 7 9 12 9 9 14 13 14 17 16 16 17 16 15 14 13 11 10 8 7 6 6 5 5 4 3 3 4 4 5 6 7 8 7 6 6 5 5 5 5 5 5 5 6 7 6 7 8 10 11 12 12 12 12 11 11 10 10 10 9 9 9 8 9 10 11 11 11 12 11
3 4 4 4 5 4 5 10 15 18 20 20 20 19 17 16 15 15 14 12 10 6 5 5 7 10 10 9 11 11 8 11 15 14 13 16 17 16 15 15 13 12 10 9 8 7 6 5 5 4 4 4 4 5 6 6 7 7 8 8 7 7 6 5 5 5 5 6 7 7 8 8 7 8 10 11 13 13 12 12 12 11 11 11 10 10 9 10 9 8 9 10 11 11 11 11 10
2 2 3 3 5 6 8 12 16 18 19 19 20 19 17 16 14 14 13 12 9 7 5 4 5 8 10 10 9 8 9 13 14 14 13 14 17 15 13 13 12 10 8 7 6 5 5 4 4 4 4 5 5 6 6 7 8 8 8 8 7 7 6 7 7 7 6 6 8 9 9 10 9 10 12 13 14 14 13 12 12 12 12 11 10 10 10 10 9 9 9 10 10 10 10 10 10
1 1 1 5 7 8 10 15 18 19 20 18 19 18 16 14 12 11 10 10 9 8 6 5 5 6 9 8 7 8 11 14 14 13 13 12 15 14 12 11 10 9 7 6 5 4 3 3 4 4 4 5 5 6 6 7 8 6 6 7 6 7 7 8 9 9 7 7 9 9 10 11 11 11 10 12 15 14 13 13 12 13 12 11 10 10 10 10 9 9 10 10 10 9 9 9 10
1 2 3 7 9 9 13 18 20 20 19 18 17 17 15 13 11 10 9 8 8 8 7 7 8 8 8 6 7 11 13 15 14 13 13 12 12 13 11 10 9 7 6 5 3 2 2 3 3 3 4 4 4 5 5 6 6 6 6 6 6 6 8 9 10 10 9 9 9 10 11 12 11 10 9 11 15 14 13 13 12 13 12 12 11 10 9 9 9 9 9 9 9 8 8 8 9
2 2 5 9 11 13 18 21 20 19 19 17 17 16 15 12 11 9 8 8 6 6 9 9 11 10 8 7 9 13 15 16 15 14 13 12 12 12 11 10 8 7 5 4 2 2 2 3 3 3 3 3 3 4 4 5 6 5 6 6 6 7 9 9 9 10 10 10 10 11 11 12 12 12 10 11 14 14 13 13 12 12 12 12 11 10 9 9 9 10 10 9 9 8 8 8 9
4 2 6 10 12 17 23 23 21 19 19 18 17 16 14 12 11 7 5 5 3 6 10 11 11 11 9 11 13 15 16 16 15 14 14 13 12 11 10 9 8 7 6 4 2 2 2 3 3 3 3 3 4 4 5 5 6 6 6 7 7 9 9 8 9 11 11 11 11 12 13 13 14 14 13 13 13 13 13 13 13 12 12 12 12 11 10 10 9 10 10 9 10 9 9 9 8
5 2 7 12 15 20 24 24 23 20 19 18 16 15 13 11 10 7 4 2 3 7 11 12 11 11 12 14 15 17 16 16 14 12 13 13 12 10 8 7 7 6 5 4 2 2 2 2 2 3 4 4 4 5 5 5 6 5 6 7 8 9 8 8 9 11 13 12 12 13 13 14 15 15 14 14 14 13 13 13 14 13 13 12 12 12 11 10 9 10 11 10 10 9 9 9 8
6 3 7 13 17 21 24 24 23 21 19 17 16 14 12 9 7 6 4 2 3 9 11 11 11 11 14 15 16 18 17 16 15 13 12 12 10 9 8 7 6 5 3 3 2 1 2 2 2 2 3 4 4 4 4 5 5 4 5 7 8 8 8 8 8 9 11 12 11 12 13 14 15 15 15 15 14 14 14 14 14 14 14 13 13 13 12 11 11 12 11 10 10 10 9 9 10
8 4 8 14 18 21 23 25 24 21 19 17 15 14 11 9 6 5 3 2 6 10 11 9 8 12 14 15 16 18 18 17 16 14 12 11 10 8 8 7 5 4 3 2 2 2 3 4 3 2 3 4 4 4 4 5 6 5 5 7 8 9 11 10 9 9 11 12 11 13 14 15 16 16 16 16 15 14 14 15 15 14 14 13 13 13 12 12 11 11 11 10 11 11 10 11 13
9 7 10 14 16 21 23 25 24 22 20 17 15 14 12 10 7 5 2 3 7 9 10 6 5 12 13 14 17 17 18 18 16 15 13 11 10 8 7 6 5 3 3 3 3 3 4 4 3 3 3 4 5 5 5 6 7 8 8 9 9 10 12 12 11 11 13 14 14 16 16 16 17 17 17 16 16 15 15 15 15 15 14 14 13 13 12 11 11 10 10 10 11 11 11 13 15
11 9 8 13 15 20 23 25 25 23 21 19 17 14 13 11 9 7 3 2 6 8 9 7 8 13 12 11 14 16 18 17 16 15 13 11 9 8 6 5 4 4 3 3 3 4 5 4 4 3 3 5 7 7 6 6 6 8 11 11 11 11 12 13 13 13 15 16 18 18 18 18 18 18 17 17 16 16 16 16 16 15 14 14 13 12 11 11 11 11 12 12 12 12 14 16 18
12 12 8 9 13 17 21 25 25 23 21 20 18 15 14 13 11 8 6 4 4 7 8 9 13 13 10 9 11 16 17 16 16 13 11 9 7 6 5 5 4 4 3 3 3 4 4 4 4 5 5 6 8 8 8 9 7 9 12 14 14 13 13 13 13 15 16 18 20 20 20 19 19 18 18 17 17 16 16 16 16 15 14 13 12 12 11 12 13 13 13 14 14 15 17 19 21
12 12 11 7 10 15 19 24 24 22 21 21 19 17 15 14 13 10 8 6 5 8 10 13 14 10 9 11 12 15 16 15 14 12 10 8 6 5 4 5 5 4 4 3 4 4 4 5 6 6 7 8 9 10 11 11 9 10 11 14 16 15 14 14 15 17 18 20 21 21 21 20 19 18 18 18 17 16 16 15 14 14 13 12 12 12 14 15 15 15 15 15 17 18 19 21 23
10 10 11 9 6 9 16 21 22 21 21 21 20 17 15 13 13 12 10 8 8 10 13 15 11 8 11 14 13 14 15 14 13 11 9 7 6 5 4 4 4 4 4 4 4 4 5 6 7 8 9 10 10 12 13 12 11 11 11 13 17 17 17 17 17 18 19 21 22 22 21 20 19 18 18 18 17 16 15 14 13 12 11 11 12 14 16 17 16 16 15 17 19 21 22 23 23
8 9 9 8 6 1 12 22 21 21 20 20 20 17 14 11 11 12 10 9 11 13 15 16 11 9 14 15 14 14 14 14 13 12 10 8 6 6 5 4 4 5 5 5 5 4 6 8 9 10 12 12 13 13 13 13 13 13 13 13 16 17 18 19 18 19 20 21 22 22 20 19 19 18 18 18 17 15 14 13 12 12 12 13 15 17 17 17 16 16 16 19 21 22 23 23 22
6 8 9 8 8 7 9 23 22 21 20 19 19 17 14 12 10 10 9 9 12 12 12 15 11 11 15 16 15 15 15 15 14 12 10 8 7 6 7 6 5 5 6 6 6 6 7 9 11 12 14 15 14 14 14 13 14 14 14 14 15 16 18 19 19 19 20 21 21 20 19 19 18 18 18 17 17 15 14 13 13 15 15 16 17 17 17 17 16 16 18 20 21 22 22 21 20
6 7 8 8 8 9 7 24 24 22 21 19 19 17 15 14 12 11 9 8 9 9 9 9 8 10 15 16 16 15 15 15 13 12 10 7 6 5 6 7 6 6 7 7 7 8 9 11 12 14 16 16 16 15 14 14 15 14 15 14 14 16 17 17 18 18 19 19 19 19 19 18 18 17 17 17 16 15 14 14 15 17 17 17 17 18 18 18 18 18 20 22 22 22 21 20 20
6 6 7 8 8 10 4 24 26 23 22 20 20 18 16 15 13 12 9 5 2 6 9 7 6 9 13 15 15 15 15 14 13 11 10 8 6 6 6 6 6 7 8 8 9 10 11 13 13 15 16 17 17 16 15 15 15 15 14 14 14 15 16 16 16 17 17 17 18 18 17 17 17 16 16 16 15 14 14 14 16 17 17 17 17 18 18 19 19 21 23 23 23 22 21 20 20
5 6 7 7 8 9 5 23 26 24 22 21 20 18 16 15 14 12 9 4 1 5 9 8 9 11 13 13 13 14 14 14 13 12 11 8 7 7 7 7 7 8 8 9 10 11 13 14 15 16 17 16 16 16 16 15 15 15 14 13 13 14 15 16 16 16 16 17 17 17 17 16 15 15 14 14 14 13 13 13 15 16 16 16 17 17 18 19 20 22 23 23 22 21 20 20 19
5 6 6 6 6 7 5 22 25 22 21 21 21 19 17 15 14 13 11 8 4 7 9 9 12 13 13 13 12 12 13 15 14 13 12 9 8 8 8 8 8 8 9 10 11 12 14 15 16 17 17 16 15 15 15 15 14 15 14 14 14 14 15 16 16 17 16 17 17 17 16 16 15 14 14 13 13 13 12 13 14 14 14 15 16 17 18 19 21 22 22 22 21 20 19 18 18
3 5 5 4 3 4 4 19 23 21 21 22 21 20 18 15 14 13 12 11 7 8 9 11 14 14 13 12 12 13 13 14 14 13 11 9 9 8 9 9 9 9 10 11 11 12 14 16 17 17 17 16 15 15 15 14 14 14 14 14 15 15 16 17 17 17 17 17 17 17 16 16 15 15 14 13 13 12 12 12 13 13 13 14 15 16 18 19 20 21 21 20 20 19 18 17 16
2 4 3 2 2 1 3 15 21 21 22 23 22 21 20 17 15 14 14 13 10 8 9 12 15 15 13 12 13 13 12 13 14 12 11 9 9 9 9 10 10 11 11 12 12 13 14 15 17 17 17 16 15 15 15 14 14 14 15 15 16 17 18 19 19 19 18 17 17 17 16 16 15 15 14 13 12 12 12 11 12 12 12 13 14 15 17 18 19 19 19 19 18 17 16 16 15
1 2 1 1 2 3 3 11 20 22 23 23 23 22 22 19 17 17 16 14 11 9 10 14 15 15 14 13 13 14 12 12 13 12 11 9 9 9 10 10 11 11 11 12 13 13 14 15 17 17 17 16 15 14 14 15 15 15 16 16 17 17 18 18 19 18 18 17 16 16 15 15 14 14 13 13 12 12 11 11 11 12 13 14 14 15 16 17 17 18 17 17 17 16 15 14 13
1 1 2 2 3 4 4 10 19 24 25 25 24 23 22 21 20 19 17 15 12 10 11 15 16 16 15 14 14 14 12 12 14 13 11 9 8 9 10 10 11 11 11 12 12 14 15 15 17 18 17 16 14 14 14 15 16 16 17 17 17 17 16 16 17 16 16 15 15 14 14 13 13 12 12 12 12 12 11 11 11 12 14 15 15 15 15 16 16 16 16 16 15 14 13 13 12
2 3 3 4 4 5 6 10 17 23 25 25 25 24 24 24 22 20 19 15 13 11 11 15 17 16 16 15 14 14 13 12 14 13 12 10 9 9 9 10 11 11 11 12 12 14 15 16 17 18 18 17 15 14 14 15 15 16 17 16 16 15 15 15 15 15 14 13 13 13 12 12 12 12 12 11 12 12 11 11 11 12 14 16 15 14 15 15 15 15 15 14 14 13 12 11 11
2 4 4 6 6 6 7 9 14 21 24 26 26 26 27 26 23 23 20 17 15 14 12 14 16 17 17 16 15 15 13 13 14 14 13 11 9 9 9 11 12 11 11 11 12 14 15 16 17 18 18 17 16 16 16 15 15 15 16 15 15 14 14 14 14 14 13 12 11 11 11 10 11 11 11 11 12 12 11 11 12 12 14 15 16 14 14 14 14 14 14 13 12 12 11 10 10
4 5 6 7 7 7 7 9 13 20 24 27 28 28 29 26 25 25 22 18 16 16 13 13 15 17 18 17 15 15 14 14 14 14 13 12 11 9 10 12 12 12 11 11 12 13 14 16 17 17 17 17 17 17 17 17 16 15 15 15 14 13 13 13 13 13 12 11 11 10 9 9 10 10 10 11 12 12 11 11 12 13 14 15 15 15 14 13 13 13 13 12 11 10 9 8 8
5 5 7 7 8 8 9 11 12 18 23 27 29 29 29 26 26 28 25 21 18 16 15 13 13 16 18 17 16 15 16 16 15 14 13 12 12 10 10 12 12 12 12 12 12 13 14 15 16 16 16 16 16 17 17 17 17 16 15 14 14 13 13 13 13 13 12 12 11 10 9 9 9 9 10 11 12 13 12 11 12 13 14 15 15 14 14 13 12 12 11 11 10 9 8 7 7
6 7 9 9 9 10 10 10 8 16 21 26 29 29 27 27 28 30 28 24 19 17 16 13 13 16 17 16 17 17 18 18 17 15 14 13 13 11 11 13 12 11 12 12 12 12 13 14 15 15 15 15 16 16 16 17 16 16 15 14 13 13 13 14 14 14 13 12 11 11 10 10 10 10 10 11 12 12 12 12 12 13 14 15 15 15 14 13 12 11 10 9 9 8 8 7 6
8 7 9 10 11 11 11 9 5 12 19 23 29 28 26 26 28 30 29 25 22 19 17 15 13 16 18 17 18 20 19 18 17 15 13 13 13 13 13 13 13 12 11 12 12 12 12 13 13 14 14 15 15 15 15 15 15 15 14 14 13 13 13 14 14 14 13 12 12 11 11 11 11 12 11 11 11 11 11 12 12 12 14 14 15 15 14 13 12 11 9 8 8 7 8 7 7
5 5 8 10 11 12 11 9 6 10 18 22 26 28 26 26 28 30 29 26 24 21 18 14 15 16 18 18 19 21 20 18 17 14 13 13 14 14 14 14 14 12 11 12 12 13 13 13 13 13 14 14 14 13 13 13 14 14 14 13 13 13 13 14 13 13 13 12 11 11 11 12 12 13 12 11 11 10 10 11 12 12 13 14 15 15 14 13 12 10 8 7 7 7 7 7 6
1 3 6 10 12 13 11 9 7 8 18 22 25 29 29 28 30 31 29 27 25 22 18 16 16 18 18 18 20 22 21 18 16 13 12 13 14 15 15 15 14 13 12 12 12 13 13 13 12 12 13 13 13 12 11 11 11 12 12 12 12 12 13 13 13 12 12 11 10 10 11 11 12 12 12 11 11 11 11 11 11 12 13 13 13 13 13 12 11 9 7 7 8 7 6 6 5
6 7 9 12 15 13 11 10 7 7 16 22 24 29 30 29 31 31 29 28 27 23 20 19 19 19 19 19 20 21 20 18 15 13 11 12 15 16 16 15 15 14 13 12 13 13 13 13 12 11 11 11 11 10 8 9 10 10 10 11 11 11 11 11 11 11 10 10 10 10 11 11 11 11 12 12 11 11 12 12 12 12 12 12 11 11 12 11 10 8 7 8 8 7 6 5 5
13 13 12 14 16 14 11 8 6 7 13 19 23 28 29 29 30 30 30 28 27 24 21 20 21 21 20 19 20 21 20 18 15 13 11 12 15 16 16 16 15 14 13 12 13 13 13 13 12 11 10 10 10 9 8 9 10 10 10 10 10 11 11 11 11 11 10 9 10 10 10 11 10 10 11 12 11 11 11 11 11 11 11 10 10 10 11 11 10 9 8 7 7 5 4 5 4
15 15 15 15 15 13 10 7 6 9 11 14 21 28 29 29 29 29 30 29 26 24 22 21 21 22 22 21 21 22 22 19 17 14 12 13 14 16 16 16 16 14 13 12 12 13 13 12 12 11 11 10 10 10 9 10 10 11 11 10 10 10 11 11 11 11 10 9 9 9 9 10 10 9 10 10 10 10 10 10 10 10 9 9 8 9 10 11 10 10 9 7 6 4 3 4 5
16 17 17 16 14 12 10 8 6 10 11 11 16 26 29 29 30 31 30 30 29 27 24 22 22 22 22 21 21 22 22 20 17 15 14 14 14 15 16 16 16 15 14 13 12 12 12 11 11 11 10 10 10 10 10 10 11 11 11 10 10 11 11 11 11 10 10 9 8 8 8 9 9 9 9 9 9 9 9 9 9 9 9 8 8 9 10 10 11 10 9 7 6 4 4 5 5
18 18 18 16 13 13 12 10 7 10 13 12 13 21 26 29 31 33 33 31 31 29 25 24 25 24 23 22 22 22 21 20 18 16 16 16 15 15 15 15 15 15 14 13 12 11 11 11 10 10 10 9 10 10 10 10 10 10 9 9 9 10 10 10 10 9 8 8 8 8 8 8 8 8 8 8 7 7 8 8 8 8 8 8 9 9 9 9 10 9 8 7 7 6 6 6 6
18 18 17 15 13 13 13 12 8 9 12 14 15 14 17 27 31 33 35 34 33 31 27 26 26 26 26 25 23 22 20 19 17 16 16 16 15 15 15 15 15 15 14 13 12 11 11 11 11 10 10 10 10 10 10 9 9 8 8 7 7 7 8 8 8 8 8 8 8 8 8 9 8 7 7 7 6 6 6 7 7 7 7 8 8 9 9 9 8 8 7 7 8 7 6 7 6
18 16 14 12 12 13 13 12 8 9 11 13 18 13 8 20 31 33 36 37 36 34 29 27 27 27 27 25 23 21 20 20 19 17 16 16 17 16 16 15 14 14 13 13 12 12 12 12 11 11 10 10 10 10 10 10 9 8 8 7 7 7 7 8 8 9 9 9 9 9 9 9 8 8 7 7 7 7 6 7 7 7 7 7 7 8 8 8 8 8 7 8 8 7 6 7 7
17 16 12 9 11 12 12 11 9 10 10 10 18 19 9 13 27 35 37 37 36 36 32 28 28 28 26 24 21 19 17 18 19 19 18 18 18 16 15 15 14 13 13 13 13 12 13 12 12 12 11 12 11 11 11 10 9 9 8 8 8 7 8 8 9 9 8 8 8 9 9 8 8 8 7 7 7 6 6 6 6 6 6 5 6 6 6 7 7 7 7 7 8 8 7 8 8
18 15 11 9 10 11 10 9 9 9 8 8 14 20 11 7 19 30 35 38 38 39 36 30 29 28 27 24 21 18 15 15 17 19 19 19 18 16 14 14 13 13 13 13 13 13 13 13 13 13 13 13 12 12 12 11 10 10 9 9 9 8 8 9 8 8 7 7 7 8 8 8 8 7 7 7 7 6 6 6 5 5 4 4 4 5 5 6 6 6 7 7 7 8 9 8 9
18 15 12 11 9 8 6 5 7 6 5 8 12 17 11 5 15 27 34 39 42 41 38 31 29 29 27 25 22 19 16 14 15 17 18 19 18 16 14 14 14 14 14 13 13 14 14 14 14 14 14 13 13 13 13 12 11 10 10 10 10 9 9 8 8 7 7 7 6 6 7 7 7 7 7 7 7 7 6 6 6 5 5 4 4 5 5 5 5 6 7 8 8 9 9 9 9
17 14 13 11 5 3 3 2 5 4 4 8 10 14 14 6 11 26 36 39 39 40 40 34 31 31 28 26 23 20 18 16 15 16 17 17 17 16 15 15 15 15 15 15 14 14 14 14 14 14 14 14 14 14 13 13 12 11 10 10 10 9 8 8 8 7 7 7 6 6 6 6 6 7 6 6 7 7 7 7 6 6 6 6 5 6 6 6 6 7 8 8 8 9 10 10 10
15 14 14 12 6 4 3 2 3 2 2 4 4 8 15 12 12 20 30 34 34 37 40 37 33 32 30 27 25 22 19 17 16 16 17 17 17 17 16 16 16 16 17 16 15 15 14 14 15 15 14 14 14 14 13 13 12 11 11 11 10 9 9 9 8 8 8 8 8 7 6 5 5 6 6 6 6 6 7 7 7 8 8 8 8 8 8 8 8 8 8 8 9 9 9 10 10
14 15 15 9 4 3 1 0 2 3 3 5 4 4 9 15 18 18 22 28 31 35 39 38 33 31 30 29 27 24 21 19 17 17 18 18 18 18 18 18 18 18 17 16 15 15 14 14 15 15 14 14 14 14 14 13 13 12 11 11 11 11 10 10 10 9 9 9 9 8 7 7 6 6 6 6 7 7 7 8 8 9 9 9 9 9 9 9 9 9 8 9 9 9 9 9 8
15 17 17 11 3 2 1 2 2 4 4 5 6 4 5 11 13 14 18 22 27 33 37 38 35 31 30 29 27 25 24 22 19 19 19 19 18 17 18 18 18 18 17 17 16 15 14 14 14 15 14 14 14 14 14 13 13 13 12 12 12 12 12 12 11 11 10 10 9 9 8 8 8 8 8 8 8 7 8 8 9 9 9 9 10 10 10 10 10 9 9 9 9 9 9 8 7
17 18 20 17 11 3 2 4 3 1 3 4 5 4 5 6 5 7 12 18 25 32 37 39 38 34 31 29 29 27 26 24 22 20 21 20 17 16 16 17 18 17 17 18 17 16 15 14 14 14 15 14 13 13 13 13 14 14 14 13 13 13 13 12 12 12 11 10 10 10 9 9 9 9 8 8 8 8 8 9 9 9 9 10 10 10 10 10 10 10 10 10 10 9 10 9 8
21 23 22 19 16 9 3 3 3 3 3 4 7 6 7 8 7 8 10 14 23 32 37 41 40 38 35 33 32 30 28 27 24 22 21 20 18 16 16 16 16 16 17 18 18 17 16 15 14 14 15 15 14 13 13 13 14 15 14 14 14 14 14 13 13 12 12 11 11 10 10 10 10 9 9 9 8 8 9 9 9 9 9 10 10 10 10 11 11 11 11 11 11 10 10 10 10
20 22 21 18 16 10 3 2 2 2 2 2 6 8 10 9 9 10 10 11 19 29 37 42 41 40 38 36 35 32 30 28 26 23 21 21 20 18 17 16 15 16 17 18 19 18 16 15 15 15 15 16 15 14 13 13 15 15 15 15 15 15 14 14 13 13 13 12 11 11 11 11 11 10 10 10 9 9 9 9 9 9 9 9 10 10 10 11 11 11 11 11 11 11 11 11 11
15 17 17 15 12 8 4 2 2 2 0 3 7 9 11 8 6 7 8 10 16 26 36 41 42 41 40 38 36 34 32 29 27 25 22 21 21 20 18 17 16 15 14 16 18 17 16 16 16 16 16 16 15 15 14 14 15 15 15 15 15 15 15 14 14 14 14 13 12 12 11 11 11 11 11 10 10 10 10 9 9 9 9 9 9 9 10 10 10 10 11 11 11 11 11 12 12
12 11 13 11 8 7 6 2 1 1 1 2 5 7 10 8 7 8 7 9 15 23 32 38 42 42 41 39 38 36 34 31 29 28 25 22 21 21 20 18 17 16 14 14 16 17 17 16 16 17 16 16 16 16 16 16 16 15 15 15 15 15 15 15 15 15 15 14 14 13 13 12 12 11 11 11 11 11 11 10 10 10 10 10 9 10 10 10 10 10 10 10 10 10 11 12 12
10 9 10 10 9 10 11 7 3 2 2 2 3 3 5 5 7 8 7 9 13 20 28 33 38 41 42 40 39 38 36 34 32 30 27 24 22 21 21 19 18 17 15 14 16 17 17 16 16 17 17 17 17 18 18 17 17 17 16 16 16 15 15 15 15 16 16 15 15 15 14 13 12 11 11 11 10 11 11 11 11 11 10 10 10 10 10 10 10 10 10 9 10 10 11 11 12
12 11 12 14 15 15 13 11 9 6 2 2 1 2 3 3 5 5 4 7 12 17 24 27 31 36 40 40 40 40 38 35 33 31 28 26 24 23 21 20 18 17 16 15 16 17 17 16 16 16 17 18 19 19 19 19 19 19 18 17 16 16 15 15 16 16 16 15 15 15 15 14 13 12 11 11 10 11 11 11 11 11 11 10 10 10 10 10 10 10 9 9 10 10 10 11 11
8 10 12 14 17 16 10 7 11 11 5 1 2 3 3 2 3 5 4 4 7 13 20 23 26 32 36 38 39 40 39 36 34 33 30 28 26 24 23 22 20 20 19 18 17 16 16 16 15 15 17 18 19 20 19 19 20 20 19 19 18 17 17 16 16 16 15 15 15 15 15 14 13 12 12 11 11 11 11 11 10 11 11 10 10 10 10 10 10 10 9 10 10 10 10 11 11
Wind_Direction
193 178 147 146 142 123 119 139 131 125 134 132 131 134 134 134 137 138 137 130 116 115 120 117 113 116 118 131 119 44 123 142 135 140 142 142 141 139 141 141 141 141 140 138 134 133 130 129 131 130 132 133 136 137 130 134 142 152 162 169 173 175 170 162 171 166 159 161 151 141 131 121 117 122 123 120 119 119 118 121 127 131 130 125 123 122 119 111 105 98 92 92 90 89 88 85 81
199 173 151 144 134 128 132 149 138 136 136 129 133 139 138 141 141 141 137 127 118 122 127 121 112 115 115 127 129 91 133 141 135 140 139 140 142 142 144 142 138 137 136 133 129 129 129 129 130 131 134 135 135 135 137 148 157 177 181 190 199 191 175 167 172 172 175 163 151 154 145 140 129 130 131 124 122 121 117 117 124 132 133 128 125 123 117 107 101 96 95 92 89 87 85 82 79
207 181 165 156 142 130 128 150 146 146 140 130 136 143 142 146 144 142 138 130 126 125 129 125 116 116 112 115 121 125 137 137 136 141 138 138 142 142 141 139 136 135 136 133 130 129 129 130 129 134 139 138 140 147 160 178 191 204 205 216 218 200 179 176 186 192 195 166 162 182 160 152 143 143 137 128 124 118 116 119 126 133 134 131 127 121 114 105 100 99 99 94 89 85 82 79 76
220 201 198 195 173 149 141 156 153 152 143 135 140 145 150 150 147 147 142 140 142 129 120 119 122 116 106 110 124 130 133 132 136 141 139 136 136 138 137 136 134 135 137 134 133 134 135 139 140 147 155 160 173 185 203 218 221 221 221 225 223 215 198 189 204 200 190 179 179 177 164 159 156 156 146 138 127 118 120 123 129 133 133 131 127 122 115 109 106 107 104 97 91 86 81 78 77
222 217 228 223 190 169 165 158 154 154 144 140 144 148 154 152 150 149 143 146 153 140 120 117 121 117 114 124 134 133 130 136 140 143 143 136 134 137 137 135 134 135 137 135 136 138 145 152 158 171 183 197 208 215 225 230 229 224 223 219 215 219 208 196 210 203 183 182 180 176 172 165 167 165 155 148 130 122 126 128 134 135 133 131 127 124 117 110 109 108 102 97 91 86 82 78 79
213 232 237 206 178 157 159 156 151 149 142 143 147 148 151 152 151 148 143 147 152 147 147 144 125 124 131 136 144 142 137 142 142 143 145 137 136 140 139 135 134 137 138 138 141 148 161 173 189 206 213 220 222 224 224 224 221 215 220 216 212 218 207 196 197 201 194 179 175 177 175 166 175 176 163 149 130 126 131 135 140 137 134 132 128 125 120 113 110 106 101 99 94 87 83 81 83
194 246 195 172 165 147 150 151 145 141 142 148 148 148 150 151 149 144 140 144 152 157 172 181 159 155 154 149 156 154 145 144 143 142 144 142 140 140 138 135 136 140 142 144 152 163 183 204 217 222 220 225 221 222 218 222 217 197 211 211 211 216 202 192 184 193 192 174 172 171 171 170 177 178 165 141 126 126 131 137 141 137 134 131 127 121 119 119 115 109 105 103 98 90 85 85 86
64 102 141 160 157 142 142 144 141 142 147 152 149 147 147 146 144 144 136 136 151 162 185 198 190 188 177 167 164 157 146 141 144 145 145 147 143 140 141 140 144 145 147 151 158 184 221 231 228 215 212 217 211 219 214 223 218 182 196 204 200 198 192 191 180 183 180 170 172 167 168 170 168 161 149 128 118 122 127 133 138 136 135 130 124 122 123 124 119 112 110 110 105 98 91 89 89
41 102 143 157 152 141 143 143 140 145 150 150 150 147 148 150 145 143 132 135 152 171 190 195 196 203 191 169 161 153 145 140 146 150 147 151 148 144 149 150 155 154 152 157 167 211 232 230 221 207 201 206 202 216 210 213 216 179 177 190 185 173 180 190 174 169 170 170 169 161 160 159 155 146 136 121 114 122 127 129 131 131 132 127 124 126 126 124 122 117 115 115 112 106 95 89 89
24 91 149 152 150 146 144 142 141 148 150 148 151 152 154 154 144 145 139 146 173 194 196 189 194 208 189 163 158 150 143 142 148 154 152 153 152 151 159 162 166 161 156 160 178 217 218 216 218 206 190 191 190 201 202 206 214 184 166 171 171 167 171 181 169 162 166 169 164 156 155 151 146 138 130 121 118 126 127 127 127 128 129 127 124 121 119 123 126 119 118 119 114 108 96 89 87
41 105 148 147 150 150 146 144 145 149 151 150 155 158 160 158 148 154 165 190 188 179 186 182 188 202 184 165 158 150 145 145 150 159 157 155 156 159 167 168 170 163 156 157 169 208 199 200 208 200 189 190 187 188 190 199 211 185 155 156 162 166 162 165 166 162 159 156 154 154 149 140 132 127 125 122 123 126 125 125 125 128 129 128 126 123 126 133 130 121 121 120 114 108 100 94 89
53 109 149 149 152 153 151 149 150 151 153 155 161 163 163 163 156 153 167 226 150 149 160 163 178 194 183 170 161 153 149 150 153 161 161 158 161 165 170 166 166 161 152 147 145 176 175 171 175 183 180 186 182 179 183 189 199 175 142 143 153 160 147 146 157 152 143 139 142 143 133 125 121 123 125 124 124 124 124 124 124 126 127 128 129 131 135 136 128 121 121 118 113 109 106 102 97
46 96 150 152 154 157 155 154 155 154 157 162 167 166 166 167 161 156 166 178 136 141 153 153 178 196 185 172 165 157 154 154 155 160 161 160 164 167 166 160 157 150 134 125 118 128 146 150 150 159 160 172 171 163 163 165 174 162 136 135 144 148 140 140 148 141 133 132 135 131 123 121 123 126 126 123 123 124 125 125 124 125 123 126 127 130 132 129 124 119 118 116 114 114 111 106 103
46 81 146 153 157 161 158 159 161 161 163 168 174 171 171 170 162 164 167 161 143 148 174 180 192 195 190 178 169 160 156 156 154 156 159 159 162 163 160 151 146 135 127 126 113 119 138 142 137 147 152 156 150 142 143 149 162 148 126 127 133 134 135 136 137 134 133 134 132 128 126 126 126 128 126 123 124 124 123 123 122 121 121 122 123 125 126 123 119 115 115 117 118 117 114 110 109
56 67 128 153 159 164 164 166 167 169 170 172 178 177 175 170 161 163 153 165 157 160 191 204 187 189 199 194 174 159 156 155 152 153 155 156 155 155 149 141 137 129 126 126 116 120 133 130 118 122 128 136 133 131 135 137 142 128 118 120 122 122 127 130 129 132 134 133 131 130 129 127 127 128 126 125 124 121 121 120 120 119 119 120 120 120 120 118 116 115 118 120 120 117 116 116 114
60 58 83 143 164 168 173 173 171 176 178 176 179 179 178 170 164 169 165 172 177 171 183 182 177 184 199 201 173 156 156 154 150 150 149 148 147 144 137 130 126 123 116 117 123 126 129 119 114 115 117 130 131 127 130 129 125 118 117 120 121 119 122 127 129 132 134 131 130 131 130 128 128 129 129 126 122 120 119 118 118 118 118 118 117 117 118 119 118 118 119 119 119 118 118 118 115
57 54 56 90 161 177 183 180 177 183 184 181 181 181 184 178 170 174 178 180 177 178 170 163 170 178 184 187 172 157 154 149 144 141 139 138 137 133 123 122 119 118 112 113 123 123 122 117 117 118 120 132 131 123 124 127 126 120 118 118 118 118 119 125 126 128 131 131 130 131 131 131 132 132 129 125 123 121 118 117 117 117 117 118 119 122 124 124 122 119 118 118 118 118 120 118 115
49 45 48 63 127 185 194 188 184 188 188 184 182 186 192 188 175 173 183 181 168 174 164 159 170 173 174 178 169 157 149 143 138 132 130 131 133 129 121 122 118 117 118 119 121 120 123 121 121 122 124 131 125 118 121 124 123 118 115 112 114 115 116 120 120 121 127 131 132 133 134 134 134 131 127 124 122 119 116 116 115 113 115 118 123 126 126 124 121 119 117 117 117 119 120 117 115
38 34 36 46 43 336 199 193 190 189 191 188 186 190 195 196 188 179 185 180 168 174 164 160 174 175 173 174 165 155 148 142 137 134 133 136 139 133 128 125 118 117 126 131 128 125 130 129 127 127 128 129 124 120 123 124 121 117 115 112 112 115 115 119 122 122 126 132 134 136 137 136 132 128 125 122 120 117 115 112 109 111 115 120 124 124 123 121 119 118 117 116 116 117 117 116 117
25 26 22 22 10 352 199 192 191 190 193 193 192 193 193 197 203 193 191 185 174 179 169 162 171 175 173 170 162 156 151 146 141 139 137 139 140 137 135 130 124 118 125 134 131 128 134 135 131 129 128 128 127 126 125 123 121 118 118 116 116 120 120 124 128 127 128 132 136 138 137 132 128 125 122 121 120 117 113 108 109 115 119 122 123 121 119 118 117 117 117 116 116 116 118 119 122
18 25 14 10 355 341 206 189 189 189 192 196 199 198 195 197 206 206 202 197 181 178 170 158 163 173 170 165 163 160 155 148 139 135 130 130 129 130 134 129 127 123 124 127 124 126 133 136 133 128 127 128 129 129 126 123 122 120 122 121 121 123 123 125 127 127 129 132 135 136 133 128 125 123 122 123 121 120 115 111 115 119 121 122 121 120 120 120 121 121 121 121 121 122 123 124 124
13 24 13 10 352 343 191 183 186 189 191 196 202 203 201 202 206 213 215 211 183 163 157 148 153 170 168 165 167 164 156 142 131 125 120 121 117 117 125 126 128 128 127 122 119 126 134 135 131 127 127 129 129 129 128 127 126 124 123 123 123 123 123 124 123 124 128 130 132 130 127 125 123 122 123 124 123 122 118 115 119 120 121 121 122 123 125 125 125 125 125 125 125 126 125 124 122
16 22 17 14 354 351 162 178 185 190 192 197 203 206 206 209 209 215 217 206 133 153 151 145 151 163 173 171 170 166 152 135 126 122 119 119 118 119 124 127 131 134 130 123 121 129 134 134 129 126 128 129 128 127 127 128 126 123 121 121 122 124 125 125 125 125 126 127 127 126 124 122 120 121 122 122 123 122 120 120 122 121 122 122 124 126 127 127 128 129 129 127 126 126 124 123 121
36 27 23 24 7 4 152 176 184 191 196 199 204 208 209 214 215 210 206 196 171 158 156 152 154 164 180 178 170 167 152 136 131 129 129 129 128 127 128 129 131 135 134 128 126 131 135 135 131 128 130 131 129 126 126 127 125 122 120 121 123 124 124 125 125 124 123 123 123 123 123 122 121 120 120 122 124 125 125 126 125 124 125 124 126 127 127 129 131 132 130 129 127 126 124 122 120
59 35 37 47 37 16 148 174 182 191 199 203 206 210 212 219 222 212 202 195 177 162 163 161 160 167 181 181 171 172 161 144 137 132 129 130 129 129 128 130 133 137 137 133 131 134 137 136 133 131 131 131 129 127 128 127 125 122 120 121 122 123 123 123 122 122 122 122 123 124 124 123 122 122 124 126 127 128 127 128 129 129 129 127 127 127 128 131 133 132 130 129 128 126 124 122 119
82 39 57 79 94 76 159 178 185 192 200 206 207 210 215 220 223 216 207 198 185 176 176 170 166 169 179 181 175 177 170 148 135 129 128 127 127 131 131 132 138 139 136 136 137 138 139 138 135 133 131 131 129 129 130 129 125 121 119 121 122 122 122 122 121 122 122 123 123 123 123 124 125 127 129 129 128 127 127 130 133 134 132 130 128 128 130 133 133 131 129 128 127 125 123 121 118
108 27 112 145 165 178 196 193 194 195 200 207 209 212 216 220 223 217 209 201 191 186 182 176 170 169 176 181 178 181 176 151 134 127 125 124 126 131 134 134 138 137 133 137 141 142 142 140 137 134 132 131 130 131 132 131 126 122 121 122 123 122 122 122 121 121 121 121 121 121 124 127 130 132 131 130 129 128 129 133 135 135 134 131 129 130 133 134 133 131 129 128 127 126 122 119 117
226 269 184 201 230 208 213 211 206 201 201 207 211 213 217 221 223 219 212 202 190 186 180 177 172 168 176 182 181 183 178 153 133 124 122 121 126 130 132 135 139 138 134 136 142 143 143 142 139 136 135 133 132 132 133 133 128 126 126 125 124 123 122 121 120 119 119 120 122 125 128 131 133 133 132 131 129 129 132 135 137 137 136 134 132 132 136 136 135 132 130 130 129 126 121 118 114
232 211 205 241 254 237 233 225 217 208 205 208 209 210 215 219 221 217 213 202 186 183 180 178 173 169 177 183 183 184 178 154 135 129 131 131 134 138 139 142 144 143 138 137 141 144 143 144 142 139 138 137 135 135 135 135 132 129 129 127 126 124 123 122 121 120 122 124 125 128 131 133 134 133 133 133 132 134 137 140 142 142 140 137 134 135 137 137 135 134 134 133 129 124 120 116 112
246 218 235 263 267 262 253 241 225 213 208 210 207 207 213 216 217 215 211 201 185 183 181 178 176 172 179 185 184 185 177 158 143 138 138 138 141 145 148 148 147 146 143 140 140 143 145 146 146 143 142 140 138 139 139 138 134 131 130 128 128 126 125 125 124 124 125 126 126 127 129 130 131 133 135 136 137 140 143 145 143 143 143 140 136 137 137 137 137 137 138 134 128 122 117 115 114
253 243 256 269 275 277 273 266 239 214 207 210 208 209 214 213 213 213 211 202 188 185 182 179 180 177 181 186 184 184 179 164 151 144 143 143 146 151 151 149 149 147 145 144 142 143 147 149 148 147 145 143 142 141 142 141 137 135 134 134 133 131 130 129 128 128 127 126 125 125 127 128 131 135 136 137 140 144 147 147 141 141 144 141 137 137 138 138 140 141 141 137 131 123 118 119 120
241 257 265 267 275 286 290 285 249 217 207 208 208 211 214 213 211 211 212 207 193 189 188 182 186 183 183 188 184 184 182 171 157 150 150 149 150 155 153 148 149 150 148 148 146 147 150 152 152 150 148 146 145 144 144 144 143 143 143 143 142 139 138 137 135 133 131 129 128 128 130 132 134 135 136 137 140 145 149 148 143 142 144 141 138 138 140 143 145 145 142 139 134 127 126 131 133
238 256 263 273 283 293 298 296 251 214 209 208 207 209 211 209 208 209 211 209 198 194 194 190 195 191 186 190 187 185 187 176 162 155 155 154 153 156 155 151 152 155 153 150 150 151 155 157 156 154 153 151 148 148 148 148 149 150 150 150 149 147 145 144 142 139 137 135 132 132 134 137 137 134 135 138 141 145 150 151 148 145 144 143 140 141 144 148 150 148 143 141 136 132 137 144 147
247 260 273 289 295 298 299 298 260 209 206 210 208 206 208 207 206 207 209 209 202 196 196 196 206 200 189 190 191 189 189 178 163 158 156 156 158 159 159 159 159 160 158 155 155 156 159 161 161 161 159 156 152 152 152 153 155 156 155 154 154 152 150 148 146 143 141 138 135 135 137 139 138 135 135 137 140 144 150 153 152 148 146 145 145 146 149 152 153 149 143 138 133 134 143 150 158
254 285 295 303 306 306 302 291 267 212 205 209 208 205 206 207 206 206 205 205 202 195 193 199 213 209 192 189 194 190 185 176 162 159 161 160 162 163 166 167 165 165 165 164 162 161 161 163 167 167 165 161 158 158 157 156 156 158 156 154 154 153 151 151 148 145 142 139 138 139 138 138 139 136 134 136 140 146 153 156 156 152 149 148 149 150 153 154 152 150 144 135 132 135 141 148 160
219 303 296 303 308 311 307 285 264 220 208 208 207 206 206 207 207 206 204 202 198 191 191 203 216 214 200 189 192 188 178 169 162 161 165 165 166 168 171 173 170 171 173 171 169 167 164 164 166 168 168 166 164 162 157 151 149 150 148 145 145 149 151 152 150 148 145 143 143 141 137 138 140 138 137 141 144 148 154 158 158 155 152 152 151 153 155 155 152 151 147 140 139 137 135 137 149
274 290 293 303 305 305 302 283 258 223 216 211 207 206 206 209 209 206 204 199 194 189 190 203 213 213 206 194 190 185 171 162 161 164 172 173 172 173 175 176 175 177 178 174 172 171 167 163 161 165 168 165 162 160 150 140 139 137 137 137 139 146 150 151 152 152 150 148 147 145 141 141 143 144 143 145 147 148 152 156 158 157 157 156 154 156 158 156 153 151 147 146 145 140 130 126 130
267 278 288 297 298 295 293 276 237 216 221 216 209 205 205 210 211 207 202 198 193 191 193 202 210 211 208 201 193 182 167 162 164 168 180 182 177 176 178 178 179 181 180 174 171 172 169 163 160 162 164 159 157 157 149 142 142 139 140 141 143 148 152 156 160 159 155 153 151 147 145 145 145 147 147 146 147 149 152 156 159 160 159 158 157 161 162 159 155 149 147 150 149 141 136 137 140
259 268 278 288 292 289 285 268 220 208 221 218 206 203 205 209 213 208 203 199 194 193 197 202 209 212 210 205 194 181 171 169 169 172 183 187 180 178 180 180 180 183 182 177 174 172 170 167 164 162 161 159 158 156 152 149 151 150 149 149 152 156 161 166 167 162 157 155 153 149 146 146 145 147 148 147 148 150 153 156 160 163 162 161 163 166 165 161 156 151 151 156 155 151 155 162 164
254 261 270 281 288 285 279 271 237 209 218 223 203 201 205 208 210 207 203 201 195 194 199 202 208 213 214 208 196 184 178 175 173 176 185 189 185 180 182 183 181 183 185 181 179 176 173 172 168 165 165 162 160 159 159 159 161 161 160 159 161 164 168 171 168 163 159 155 153 152 149 149 147 148 149 148 150 151 153 156 162 168 169 168 169 169 168 165 160 157 158 164 169 169 171 171 174
250 256 265 276 284 287 283 277 256 213 217 227 203 197 205 208 208 207 205 203 199 198 200 201 206 210 210 207 197 187 183 181 179 180 185 189 189 181 181 185 182 183 187 184 181 182 180 177 173 173 172 168 166 168 170 169 170 171 168 167 167 167 167 167 164 162 159 155 155 155 155 156 154 153 151 150 152 152 155 161 163 168 173 175 175 172 172 172 170 169 173 181 179 174 178 180 182
250 253 262 272 276 281 283 279 258 214 219 226 205 192 207 212 212 210 208 204 201 200 201 201 204 206 205 203 197 189 186 186 186 186 187 188 188 183 180 183 183 183 188 187 184 186 186 182 180 181 180 175 173 175 179 180 179 179 175 174 177 174 167 165 166 166 166 165 163 162 160 160 161 158 155 153 153 154 160 165 164 167 172 176 178 175 175 181 184 186 192 197 189 181 184 189 194
247 251 259 268 266 268 276 278 258 214 219 222 209 203 213 212 212 212 208 205 203 201 202 201 201 203 204 202 197 193 189 188 188 188 189 187 188 189 184 181 182 182 185 188 187 188 189 186 184 186 184 181 180 179 184 188 188 185 180 181 186 183 177 176 177 176 177 176 171 168 166 165 165 162 160 161 159 160 160 161 163 166 168 172 177 179 179 187 194 198 200 202 199 195 195 196 203
239 246 255 264 261 264 271 269 253 227 230 231 214 213 223 215 211 210 208 206 205 203 203 200 199 201 199 195 194 195 194 191 189 188 188 186 188 192 189 182 182 185 186 188 189 189 189 187 184 184 183 183 184 184 187 193 193 190 186 185 183 184 188 187 185 185 185 183 178 175 173 169 168 166 166 168 168 166 163 161 162 163 164 169 175 180 185 192 200 205 208 210 210 209 208 204 206
232 240 251 257 253 258 268 258 243 237 241 246 221 211 221 237 215 209 207 208 207 205 204 200 198 198 194 191 190 193 197 198 195 190 186 185 186 190 190 183 183 190 191 191 192 192 191 188 183 181 182 182 184 184 187 194 197 194 190 187 184 188 198 197 190 187 185 185 185 183 179 174 174 175 173 173 174 174 172 168 166 167 171 175 180 187 194 199 207 214 219 223 222 220 221 219 217
232 237 242 238 236 244 257 246 233 239 247 253 237 216 215 244 219 209 208 212 213 209 205 202 199 196 194 193 192 193 199 203 202 196 190 185 182 183 185 184 186 193 197 196 196 197 195 191 186 183 182 182 183 185 187 191 196 195 189 185 185 188 198 201 193 188 185 184 186 189 187 180 181 188 185 180 182 184 183 180 178 181 189 190 191 198 204 209 215 220 224 227 226 227 230 232 233
233 237 228 208 183 188 191 181 211 235 263 256 251 228 223 238 225 214 213 219 220 213 207 204 201 198 197 197 196 195 200 203 201 196 192 185 179 181 185 187 189 195 201 201 200 201 199 195 192 188 186 185 185 185 186 189 192 192 188 186 187 186 188 193 190 189 186 180 180 190 195 185 186 196 195 192 193 193 192 193 194 195 201 206 205 205 210 215 219 222 227 230 230 231 234 237 240
234 230 209 184 129 106 130 130 179 200 273 240 244 232 223 230 236 225 222 225 225 219 212 208 205 201 198 199 199 198 201 206 201 193 192 189 183 183 187 190 192 196 202 203 203 205 203 200 199 195 190 188 190 189 187 190 192 192 192 191 190 188 184 184 187 189 189 187 184 188 196 193 193 202 203 204 206 203 202 203 205 205 205 210 213 212 215 219 223 225 228 232 232 233 238 242 242
229 218 195 172 85 63 158 218 204 228 240 209 207 217 221 237 244 236 231 229 225 223 219 215 211 205 200 201 203 202 203 208 205 192 189 191 188 186 187 190 194 198 202 204 206 208 208 206 205 203 198 194 196 196 191 192 193 195 197 198 197 194 189 187 189 191 192 196 195 191 194 196 197 202 203 208 211 209 209 210 213 214 212 214 217 218 219 222 226 228 228 230 231 233 238 241 243
209 209 197 183 134 78 236 263 266 257 246 221 217 219 235 253 255 243 241 239 228 221 220 218 216 210 205 204 206 207 207 210 208 196 189 189 188 186 188 192 196 200 202 204 207 209 210 212 211 210 207 203 202 201 198 194 194 197 199 200 199 198 196 194 194 196 196 201 202 198 197 198 201 204 204 208 212 213 215 215 216 218 219 221 225 225 225 227 229 229 231 232 234 236 240 243 246
204 209 209 204 202 205 226 218 220 208 180 187 193 205 230 236 255 261 258 249 231 220 215 216 218 215 210 208 210 211 212 213 212 203 195 190 188 189 191 193 197 202 206 207 208 210 211 213 215 216 215 213 210 207 203 197 196 198 198 198 198 198 200 201 201 203 202 202 201 199 199 202 206 210 212 214 216 218 221 221 220 220 220 222 228 231 230 232 233 233 235 238 239 240 244 249 252
198 204 210 212 222 241 254 189 193 165 140 172 198 219 243 244 260 277 276 254 228 217 212 213 216 217 213 212 213 215 214 214 215 211 203 196 193 195 198 197 197 202 210 212 211 212 213 213 215 218 220 220 218 215 210 203 200 200 198 197 199 200 202 204 207 209 207 205 203 200 201 206 208 211 217 222 221 221 225 225 223 223 222 222 225 229 232 234 237 239 240 241 242 241 244 248 250
199 204 208 216 229 246 258 154 156 150 142 216 221 236 257 264 270 265 262 250 223 212 210 210 213 216 215 214 215 216 216 215 216 215 209 203 199 199 202 202 200 202 209 214 214 213 215 217 217 217 220 222 220 218 216 212 208 203 200 201 202 203 203 205 210 211 209 209 208 207 207 209 211 212 216 222 221 221 224 225 225 225 224 224 223 224 229 233 237 241 242 242 243 244 247 249 249
214 214 214 224 232 242 245 184 103 82 150 243 232 247 260 259 268 259 242 233 220 211 208 209 211 214 216 216 216 217 217 217 217 218 216 212 208 206 206 206 205 205 209 215 216 216 216 219 220 219 220 223 223 222 219 219 215 209 205 205 207 207 205 206 211 212 211 210 210 211 213 215 217 218 219 222 223 223 223 223 224 224 223 224 224 225 228 232 236 239 241 243 245 247 250 253 252
230 232 230 242 247 247 244 208 152 184 223 268 251 255 260 259 277 283 252 223 219 213 208 209 211 212 214 216 218 219 218 217 218 219 219 219 215 212 210 209 208 207 210 212 213 215 217 220 223 222 221 222 224 224 221 220 219 215 211 209 211 212 211 210 212 213 213 211 210 211 212 215 219 220 222 223 223 223 223 222 222 223 224 223 225 227 229 231 234 237 239 242 245 246 249 252 254
227 231 234 249 255 254 256 248 223 196 194 263 284 272 268 286 308 303 265 226 218 215 211 210 211 212 214 216 219 222 220 218 219 219 220 222 221 218 214 212 212 210 211 213 211 213 215 220 225 226 223 221 222 223 221 220 220 217 214 212 213 215 216 216 216 215 214 212 211 211 212 214 215 217 221 223 222 222 223 224 224 225 227 227 228 229 230 231 233 236 238 242 245 245 247 252 256
230 235 234 242 243 246 258 259 244 236 213 176 200 271 280 310 328 322 283 230 218 216 214 212 213 214 216 217 221 223 222 221 221 221 222 224 225 225 221 217 217 217 218 219 217 215 216 220 227 231 228 223 223 223 222 222 222 219 215 213 215 217 219 221 221 218 216 213 212 212 213 214 213 214 218 220 220 221 222 225 225 227 230 232 233 234 233 233 234 238 240 242 245 246 248 253 257
213 226 226 232 236 237 248 260 245 242 244 208 184 245 272 302 308 317 316 243 225 217 212 213 214 213 214 217 219 222 224 224 225 225 225 227 228 229 228 224 222 222 223 223 222 221 221 222 228 237 238 231 227 225 222 222 224 223 218 215 215 217 219 221 222 220 218 215 212 213 215 216 214 215 219 220 221 224 226 227 226 226 230 234 237 238 238 236 237 240 243 244 246 249 251 255 257